ENY3581 KMIA-KEYW

Flight info

Callsign ENY3581
Flight time N/A
Altitude 18000
Route MNATE
Aircraft AT76/M-SDFGIRY/S

Departure

Time 2026-05-04 14:32
Airport Miami International Airport (KMIA)

Arrival

Time N/A
Airport Key West International Airport (KEYW)
Time Latitude Longitude Altitude Speed Heading
2026-05-04 13:54 25.79687 -80.28722 12 ft 0 kts 59°
2026-05-04 13:55 25.79691 -80.28715 12 ft 0 kts 59°
2026-05-04 13:55 25.79692 -80.28714 12 ft 0 kts 59°
2026-05-04 13:55 25.79690 -80.28717 12 ft 0 kts 59°
2026-05-04 14:22 25.79684 -80.28728 12 ft 4 kts 56°
2026-05-04 14:22 25.79667 -80.28750 12 ft 4 kts 33°
2026-05-04 14:22 25.79646 -80.28759 12 ft 1 kts 357°
2026-05-04 14:23 25.79645 -80.28759 12 ft 0 kts 357°
2026-05-04 14:26 25.79651 -80.28759 12 ft 3 kts 355°
2026-05-04 14:26 25.79688 -80.28763 12 ft 7 kts 353°
2026-05-04 14:26 25.79710 -80.28766 12 ft 12 kts 354°
2026-05-04 14:27 25.79765 -80.28801 12 ft 15 kts 315°
2026-05-04 14:27 25.79854 -80.28823 12 ft 13 kts 359°
2026-05-04 14:27 25.79927 -80.28856 12 ft 11 kts 288°
2026-05-04 14:27 25.79926 -80.28955 12 ft 22 kts 266°
2026-05-04 14:28 25.79918 -80.29121 12 ft 20 kts 268°
2026-05-04 14:28 25.79915 -80.29264 12 ft 17 kts 269°
2026-05-04 14:28 25.79911 -80.29389 12 ft 16 kts 266°
2026-05-04 14:28 25.79905 -80.29505 11 ft 15 kts 267°
2026-05-04 14:29 25.79897 -80.29722 11 ft 14 kts 268°
2026-05-04 14:29 25.79897 -80.29927 11 ft 12 kts 287°
2026-05-04 14:30 25.79942 -80.30004 10 ft 12 kts 320°
2026-05-04 14:30 25.80019 -80.30031 9 ft 12 kts 359°
2026-05-04 14:30 25.80077 -80.30003 9 ft 5 kts 84°
2026-05-04 14:31 25.80095 -80.29695 10 ft 74 kts 84°
2026-05-04 14:31 25.80307 -80.27940 588 ft 139 kts 84°
2026-05-04 14:32 25.80895 -80.25594 1192 ft 183 kts 95°
2026-05-04 14:32 25.80298 -80.24399 1951 ft 177 kts 142°
2026-05-04 14:32 25.79954 -80.24180 2237 ft 174 kts 158°